Year,Month,Day,Hour,Minute,Value (Times are PST for temperature in C)
2021,08,12,00,00,19.70
2021,08,12,00,01,19.70
2021,08,12,00,02,19.70
2021,08,12,00,03,19.70
2021,08,12,00,04,19.70
2021,08,12,00,05,19.70
2021,08,12,00,06,19.70
2021,08,12,00,07,19.60
2021,08,12,00,08,19.60
2021,08,12,00,09,19.60
2021,08,12,00,10,19.60
2021,08,12,00,11,19.60
2021,08,12,00,12,19.60
2021,08,12,00,13,19.60
2021,08,12,00,14,19.50
2021,08,12,00,15,19.50
2021,08,12,00,16,19.50
2021,08,12,00,17,19.50
2021,08,12,00,18,19.60
2021,08,12,00,19,19.60
2021,08,12,00,20,19.50
2021,08,12,00,21,19.50
2021,08,12,00,22,19.50
2021,08,12,00,23,19.50
2021,08,12,00,24,19.50
2021,08,12,00,25,19.50
2021,08,12,00,26,19.50
2021,08,12,00,27,19.50
2021,08,12,00,28,19.40
2021,08,12,00,29,19.40
2021,08,12,00,30,19.40
2021,08,12,00,31,19.40
2021,08,12,00,32,19.30
2021,08,12,00,33,19.30
2021,08,12,00,34,19.30
2021,08,12,00,35,19.30
2021,08,12,00,36,19.30
2021,08,12,00,37,19.40
2021,08,12,00,38,19.40
2021,08,12,00,39,19.40
2021,08,12,00,40,19.40
2021,08,12,00,41,19.40
2021,08,12,00,42,19.40
2021,08,12,00,43,19.40
2021,08,12,00,44,19.40
2021,08,12,00,45,19.40
2021,08,12,00,46,19.40
2021,08,12,00,47,19.40
2021,08,12,00,48,19.40
2021,08,12,00,49,19.40
2021,08,12,00,50,19.40
2021,08,12,00,51,19.40
2021,08,12,00,52,19.40
2021,08,12,00,53,19.40
2021,08,12,00,54,19.40
2021,08,12,00,55,19.40
2021,08,12,00,56,19.40
2021,08,12,00,57,19.30
2021,08,12,00,58,19.30
2021,08,12,00,59,19.30
2021,08,12,01,00,19.30
2021,08,12,01,01,19.30
2021,08,12,01,02,19.30
2021,08,12,01,03,19.30
2021,08,12,01,04,19.30
2021,08,12,01,05,19.30
2021,08,12,01,06,19.30
2021,08,12,01,07,19.30
2021,08,12,01,08,19.30
2021,08,12,01,09,19.30
2021,08,12,01,10,19.20
2021,08,12,01,11,19.20
2021,08,12,01,12,19.20
2021,08,12,01,13,19.20
2021,08,12,01,14,19.20
2021,08,12,01,15,19.20
2021,08,12,01,16,19.20
2021,08,12,01,17,19.10
2021,08,12,01,18,19.10
2021,08,12,01,19,19.10
2021,08,12,01,20,19.10
2021,08,12,01,21,19.10
2021,08,12,01,22,19.10
2021,08,12,01,23,19.10
2021,08,12,01,24,19.10
2021,08,12,01,25,19.10
2021,08,12,01,26,19.10
2021,08,12,01,27,19.10
2021,08,12,01,28,19.10
2021,08,12,01,29,19.10
2021,08,12,01,30,19.10
2021,08,12,01,31,19.10
2021,08,12,01,32,19.10
2021,08,12,01,33,19.10
2021,08,12,01,34,19.10
2021,08,12,01,35,19.10
2021,08,12,01,36,19.10
2021,08,12,01,37,19.10
2021,08,12,01,38,19.10
2021,08,12,01,39,19.10
2021,08,12,01,40,19.10
2021,08,12,01,41,19.10
2021,08,12,01,42,19.10
2021,08,12,01,43,19.10
2021,08,12,01,44,19.00
2021,08,12,01,45,19.00
2021,08,12,01,46,19.00
2021,08,12,01,47,19.10
2021,08,12,01,48,19.10
2021,08,12,01,49,19.10
2021,08,12,01,50,19.10
2021,08,12,01,51,19.10
2021,08,12,01,52,19.10
2021,08,12,01,53,19.10
2021,08,12,01,54,19.10
2021,08,12,01,55,19.10
2021,08,12,01,56,19.10
2021,08,12,01,57,19.10
2021,08,12,01,58,19.10
2021,08,12,01,59,19.10
2021,08,12,02,00,19.10
2021,08,12,02,01,19.20
2021,08,12,02,02,19.20
2021,08,12,02,03,19.20
2021,08,12,02,04,19.10
2021,08,12,02,05,19.10
2021,08,12,02,06,19.10
2021,08,12,02,07,19.10
2021,08,12,02,08,19.10
2021,08,12,02,09,19.10
2021,08,12,02,10,19.10
2021,08,12,02,11,19.10
2021,08,12,02,12,19.00
2021,08,12,02,13,19.00
2021,08,12,02,14,19.00
2021,08,12,02,15,18.90
2021,08,12,02,16,18.90
2021,08,12,02,17,18.90
2021,08,12,02,18,18.90
2021,08,12,02,19,18.80
2021,08,12,02,20,18.80
2021,08,12,02,21,18.80
2021,08,12,02,22,18.80
2021,08,12,02,23,18.70
2021,08,12,02,24,18.70
2021,08,12,02,25,18.70
2021,08,12,02,26,18.70
2021,08,12,02,27,18.70
2021,08,12,02,28,18.60
2021,08,12,02,29,18.60
2021,08,12,02,30,18.60
2021,08,12,02,31,18.60
2021,08,12,02,32,18.60
2021,08,12,02,33,18.60
2021,08,12,02,34,18.60
2021,08,12,02,35,18.70
2021,08,12,02,36,18.70
2021,08,12,02,37,18.70
2021,08,12,02,38,18.80
2021,08,12,02,39,18.80
2021,08,12,02,40,18.80
2021,08,12,02,41,18.80
2021,08,12,02,42,18.80
2021,08,12,02,43,18.90
2021,08,12,02,44,18.90
2021,08,12,02,45,18.90
2021,08,12,02,46,18.90
2021,08,12,02,47,18.90
2021,08,12,02,48,19.00
2021,08,12,02,49,19.00
2021,08,12,02,50,19.00
2021,08,12,02,51,18.90
2021,08,12,02,52,19.00
2021,08,12,02,53,19.00
2021,08,12,02,54,19.00
2021,08,12,02,55,19.10
2021,08,12,02,56,19.10
2021,08,12,02,57,19.20
2021,08,12,02,58,19.20
2021,08,12,02,59,19.20
2021,08,12,03,00,19.30
2021,08,12,03,01,19.30
2021,08,12,03,02,19.30
2021,08,12,03,03,19.40
2021,08,12,03,04,19.40
2021,08,12,03,05,19.40
2021,08,12,03,06,19.40
2021,08,12,03,07,19.30
2021,08,12,03,08,19.30
2021,08,12,03,09,19.30
2021,08,12,03,10,19.30
2021,08,12,03,11,19.30
2021,08,12,03,12,19.30
2021,08,12,03,13,19.30
2021,08,12,03,14,19.30
2021,08,12,03,15,19.30
2021,08,12,03,16,19.30
2021,08,12,03,17,19.40
2021,08,12,03,18,19.40
2021,08,12,03,19,19.40
2021,08,12,03,20,19.40
2021,08,12,03,21,19.50
2021,08,12,03,22,19.50
2021,08,12,03,23,19.50
2021,08,12,03,24,19.50
2021,08,12,03,25,19.50
2021,08,12,03,26,19.60
2021,08,12,03,27,19.60
2021,08,12,03,28,19.60
2021,08,12,03,29,19.60
2021,08,12,03,30,19.60
2021,08,12,03,31,19.70
2021,08,12,03,32,19.70
2021,08,12,03,33,19.70
2021,08,12,03,34,19.70
2021,08,12,03,35,19.80
2021,08,12,03,36,19.80
2021,08,12,03,37,19.80
2021,08,12,03,38,19.80
2021,08,12,03,39,19.90
2021,08,12,03,40,20.00
2021,08,12,03,41,20.00
2021,08,12,03,42,20.10
2021,08,12,03,43,20.20
2021,08,12,03,44,20.30
2021,08,12,03,45,20.30
2021,08,12,03,46,20.40
2021,08,12,03,47,20.40
2021,08,12,03,48,20.50
2021,08,12,03,49,20.60
2021,08,12,03,50,20.60
2021,08,12,03,51,20.60
2021,08,12,03,52,20.70
2021,08,12,03,53,20.70
2021,08,12,03,54,20.60
2021,08,12,03,55,20.60
2021,08,12,03,56,20.50
2021,08,12,03,57,20.40
2021,08,12,03,58,20.30
2021,08,12,03,59,20.30
2021,08,12,04,00,20.20
2021,08,12,04,01,20.10
2021,08,12,04,02,20.10
2021,08,12,04,03,20.10
2021,08,12,04,04,20.10
2021,08,12,04,05,20.00
2021,08,12,04,06,20.00
2021,08,12,04,07,20.00
2021,08,12,04,08,20.00
2021,08,12,04,09,20.00
2021,08,12,04,10,19.90
2021,08,12,04,11,19.90
2021,08,12,04,12,19.90
2021,08,12,04,13,19.90
2021,08,12,04,14,19.90
2021,08,12,04,15,20.00
2021,08,12,04,16,20.00
2021,08,12,04,17,20.10
2021,08,12,04,18,20.10
2021,08,12,04,19,20.10
2021,08,12,04,20,20.10
2021,08,12,04,21,20.10
2021,08,12,04,22,20.10
2021,08,12,04,23,20.10
2021,08,12,04,24,20.20
2021,08,12,04,25,20.20
2021,08,12,04,26,20.20
2021,08,12,04,27,20.20
2021,08,12,04,28,20.20
2021,08,12,04,29,20.10
2021,08,12,04,30,20.10
2021,08,12,04,31,20.10
2021,08,12,04,32,20.00
2021,08,12,04,33,20.00
2021,08,12,04,34,19.90
2021,08,12,04,35,19.90
2021,08,12,04,36,19.90
2021,08,12,04,37,19.80
2021,08,12,04,38,19.80
2021,08,12,04,39,19.70
2021,08,12,04,40,19.70
2021,08,12,04,41,19.70
2021,08,12,04,42,19.70
2021,08,12,04,43,19.70
2021,08,12,04,44,19.70
2021,08,12,04,45,19.70
2021,08,12,04,46,19.70
2021,08,12,04,47,19.70
2021,08,12,04,48,19.70
2021,08,12,04,49,19.60
2021,08,12,04,50,19.60
2021,08,12,04,51,19.60
2021,08,12,04,52,19.60
2021,08,12,04,53,19.60
2021,08,12,04,54,19.60
2021,08,12,04,55,19.60
2021,08,12,04,56,19.50
2021,08,12,04,57,19.50
2021,08,12,04,58,19.40
2021,08,12,04,59,19.40
2021,08,12,05,00,19.40
2021,08,12,05,01,19.30
2021,08,12,05,02,19.30
2021,08,12,05,03,19.30
2021,08,12,05,04,19.30
2021,08,12,05,05,19.30
2021,08,12,05,06,19.40
2021,08,12,05,07,19.40
2021,08,12,05,08,19.40
2021,08,12,05,09,19.40
2021,08,12,05,10,19.40
2021,08,12,05,11,19.40
2021,08,12,05,12,19.40
2021,08,12,05,13,19.40
2021,08,12,05,14,19.40
2021,08,12,05,15,19.40
2021,08,12,05,16,19.40
2021,08,12,05,17,19.40
2021,08,12,05,18,19.40
2021,08,12,05,19,19.40
2021,08,12,05,20,19.50
2021,08,12,05,21,19.50
2021,08,12,05,22,19.50
2021,08,12,05,23,19.50
2021,08,12,05,24,19.50
2021,08,12,05,25,19.50
2021,08,12,05,26,19.50
2021,08,12,05,27,19.50
2021,08,12,05,28,19.50
2021,08,12,05,29,19.50
2021,08,12,05,30,19.60
2021,08,12,05,31,19.60
2021,08,12,05,32,19.60
2021,08,12,05,33,19.60
2021,08,12,05,34,19.60
2021,08,12,05,35,19.60
2021,08,12,05,36,19.60
2021,08,12,05,37,19.60
2021,08,12,05,38,19.50
2021,08,12,05,39,19.50
2021,08,12,05,40,19.50
2021,08,12,05,41,19.40
2021,08,12,05,42,19.40
2021,08,12,05,43,19.40
2021,08,12,05,44,19.40
2021,08,12,05,45,19.40
2021,08,12,05,46,19.40
2021,08,12,05,47,19.50
2021,08,12,05,48,19.50
2021,08,12,05,49,19.50
2021,08,12,05,50,19.50
2021,08,12,05,51,19.60
2021,08,12,05,52,19.60
2021,08,12,05,53,19.60
2021,08,12,05,54,19.60
2021,08,12,05,55,19.60
2021,08,12,05,56,19.60
2021,08,12,05,57,19.60
2021,08,12,05,58,19.60
2021,08,12,05,59,19.60
2021,08,12,06,00,19.60
2021,08,12,06,01,19.60
2021,08,12,06,02,19.60
2021,08,12,06,03,19.60
2021,08,12,06,04,19.60
2021,08,12,06,05,19.60
2021,08,12,06,06,19.60
2021,08,12,06,07,19.60
2021,08,12,06,08,19.60
2021,08,12,06,09,19.60
2021,08,12,06,10,19.50
2021,08,12,06,11,19.50
2021,08,12,06,12,19.50
2021,08,12,06,13,19.50
2021,08,12,06,14,19.40
2021,08,12,06,15,19.40
2021,08,12,06,16,19.40
2021,08,12,06,17,19.40
2021,08,12,06,18,19.40
2021,08,12,06,19,19.50
2021,08,12,06,20,19.50
2021,08,12,06,21,19.50
2021,08,12,06,22,19.50
2021,08,12,06,23,19.50
2021,08,12,06,24,19.60
2021,08,12,06,25,19.60
2021,08,12,06,26,19.60
2021,08,12,06,27,19.70
2021,08,12,06,28,19.70
2021,08,12,06,29,19.70
2021,08,12,06,30,19.70
2021,08,12,06,31,19.70
2021,08,12,06,32,19.70
2021,08,12,06,33,19.70
2021,08,12,06,34,19.60
2021,08,12,06,35,19.60
2021,08,12,06,36,19.70
2021,08,12,06,37,19.70
2021,08,12,06,38,19.70
2021,08,12,06,39,19.70
2021,08,12,06,40,19.70
2021,08,12,06,41,19.70
2021,08,12,06,42,19.70
2021,08,12,06,43,19.80
2021,08,12,06,44,19.80
2021,08,12,06,45,19.80
2021,08,12,06,46,19.80
2021,08,12,06,47,19.80
2021,08,12,06,48,19.80
2021,08,12,06,49,19.80
2021,08,12,06,50,19.80
2021,08,12,06,51,19.80
2021,08,12,06,52,19.80
2021,08,12,06,53,19.80
2021,08,12,06,54,19.90
2021,08,12,06,55,19.90
2021,08,12,06,56,20.00
2021,08,12,06,57,20.10
2021,08,12,06,58,20.10
2021,08,12,06,59,20.10
2021,08,12,07,00,20.10
2021,08,12,07,01,20.10
2021,08,12,07,02,20.20
2021,08,12,07,03,20.20
2021,08,12,07,04,20.20
2021,08,12,07,05,20.20
2021,08,12,07,06,20.20
2021,08,12,07,07,20.20
2021,08,12,07,08,20.20
2021,08,12,07,09,20.20
2021,08,12,07,10,20.20
2021,08,12,07,11,20.20
2021,08,12,07,12,20.20
2021,08,12,07,13,20.20
2021,08,12,07,14,20.20
2021,08,12,07,15,20.20
2021,08,12,07,16,20.20
2021,08,12,07,17,20.20
2021,08,12,07,18,20.10
2021,08,12,07,19,20.10
2021,08,12,07,20,20.10
2021,08,12,07,21,20.10
2021,08,12,07,22,20.10
2021,08,12,07,23,20.10
2021,08,12,07,24,20.10
2021,08,12,07,25,20.10
2021,08,12,07,26,20.10
2021,08,12,07,27,20.10
2021,08,12,07,28,20.10
2021,08,12,07,29,20.10
2021,08,12,07,30,20.10
2021,08,12,07,31,20.10
2021,08,12,07,32,20.10
2021,08,12,07,33,20.10
2021,08,12,07,34,20.10
2021,08,12,07,35,20.10
2021,08,12,07,36,20.10
2021,08,12,07,37,20.10
2021,08,12,07,38,20.10
2021,08,12,07,39,20.10
2021,08,12,07,40,20.20
2021,08,12,07,41,20.20
2021,08,12,07,42,20.20
2021,08,12,07,43,20.20
2021,08,12,07,44,20.20
2021,08,12,07,45,20.20
2021,08,12,07,46,20.30
2021,08,12,07,47,20.30
2021,08,12,07,48,20.30
2021,08,12,07,49,20.30
2021,08,12,07,50,20.30
2021,08,12,07,51,20.40
2021,08,12,07,52,20.40
2021,08,12,07,53,20.40
2021,08,12,07,54,20.40
2021,08,12,07,55,20.50
2021,08,12,07,56,20.60
2021,08,12,07,57,20.60
2021,08,12,07,58,20.70
2021,08,12,07,59,20.70
2021,08,12,08,00,20.80
2021,08,12,08,01,20.80
2021,08,12,08,02,20.90
2021,08,12,08,03,20.90
2021,08,12,08,04,21.00
2021,08,12,08,05,21.10
2021,08,12,08,06,21.20
2021,08,12,08,07,21.20
2021,08,12,08,08,21.30
2021,08,12,08,09,21.30
2021,08,12,08,10,21.30
2021,08,12,08,11,21.40
2021,08,12,08,12,21.40
2021,08,12,08,13,21.40
2021,08,12,08,14,21.50
2021,08,12,08,15,21.50
2021,08,12,08,16,21.50
2021,08,12,08,17,21.60
2021,08,12,08,18,21.60
2021,08,12,08,19,21.70
2021,08,12,08,20,21.80
2021,08,12,08,21,21.90
2021,08,12,08,22,21.90
2021,08,12,08,23,22.00
2021,08,12,08,24,22.10
2021,08,12,08,25,22.20
2021,08,12,08,26,22.20
2021,08,12,08,27,22.30
2021,08,12,08,28,22.30
2021,08,12,08,29,22.40
2021,08,12,08,30,22.40
2021,08,12,08,31,22.50
2021,08,12,08,32,22.60
2021,08,12,08,33,22.60
2021,08,12,08,34,22.70
2021,08,12,08,35,22.80
2021,08,12,08,36,22.80
2021,08,12,08,37,22.90
2021,08,12,08,38,23.00
2021,08,12,08,39,23.00
2021,08,12,08,40,23.10
2021,08,12,08,41,23.10
2021,08,12,08,42,23.20
2021,08,12,08,43,23.30
2021,08,12,08,44,23.30
2021,08,12,08,45,23.30
2021,08,12,08,46,23.40
2021,08,12,08,47,23.40
2021,08,12,08,48,23.40
2021,08,12,08,49,23.50
2021,08,12,08,50,23.50
2021,08,12,08,51,23.60
2021,08,12,08,52,23.60
2021,08,12,08,53,23.70
2021,08,12,08,54,23.70
2021,08,12,08,55,23.70
2021,08,12,08,56,23.80
2021,08,12,08,57,23.90
2021,08,12,08,58,23.90
2021,08,12,08,59,24.00
2021,08,12,09,00,24.10
2021,08,12,09,01,24.10
2021,08,12,09,02,24.20
2021,08,12,09,03,24.20
2021,08,12,09,04,24.30
2021,08,12,09,05,24.30
2021,08,12,09,06,24.40
2021,08,12,09,07,24.40
2021,08,12,09,08,24.40
2021,08,12,09,09,24.40
2021,08,12,09,10,24.50
2021,08,12,09,11,24.60
2021,08,12,09,12,24.60
2021,08,12,09,13,24.60
2021,08,12,09,14,24.60
2021,08,12,09,15,24.60
2021,08,12,09,16,24.60
2021,08,12,09,17,24.60
2021,08,12,09,18,24.60
2021,08,12,09,19,24.60
2021,08,12,09,20,24.60
2021,08,12,09,21,24.70
2021,08,12,09,22,24.80
2021,08,12,09,23,24.80
2021,08,12,09,24,24.90
2021,08,12,09,25,25.00
2021,08,12,09,26,25.10
2021,08,12,09,27,25.20
2021,08,12,09,28,25.20
2021,08,12,09,29,25.30
2021,08,12,09,30,25.40
2021,08,12,09,31,25.50
2021,08,12,09,32,25.60
2021,08,12,09,33,25.70
2021,08,12,09,34,25.70
2021,08,12,09,35,25.80
2021,08,12,09,36,25.80
2021,08,12,09,37,25.80
2021,08,12,09,38,25.80
2021,08,12,09,39,25.80
2021,08,12,09,40,25.80
2021,08,12,09,41,25.70
2021,08,12,09,42,25.70
2021,08,12,09,43,25.70
2021,08,12,09,44,25.70
2021,08,12,09,45,25.80
2021,08,12,09,46,25.80
2021,08,12,09,47,25.80
2021,08,12,09,48,25.80
2021,08,12,09,49,25.90
2021,08,12,09,50,25.90
2021,08,12,09,51,26.00
2021,08,12,09,52,26.00
2021,08,12,09,53,26.10
2021,08,12,09,54,26.10
2021,08,12,09,55,26.20
2021,08,12,09,56,26.20
2021,08,12,09,57,26.30
2021,08,12,09,58,26.30
2021,08,12,09,59,26.40
2021,08,12,10,00,26.50
2021,08,12,10,01,26.50
2021,08,12,10,02,26.60
2021,08,12,10,03,26.60
2021,08,12,10,04,26.60
2021,08,12,10,05,26.60
2021,08,12,10,06,26.60
2021,08,12,10,07,26.60
2021,08,12,10,08,26.60
2021,08,12,10,09,26.60
2021,08,12,10,10,26.70
2021,08,12,10,11,26.70
2021,08,12,10,12,26.70
2021,08,12,10,13,26.80
2021,08,12,10,14,26.80
2021,08,12,10,15,26.90
2021,08,12,10,16,27.00
2021,08,12,10,17,27.10
2021,08,12,10,18,27.20
2021,08,12,10,19,27.20
2021,08,12,10,20,27.20
2021,08,12,10,21,27.20
2021,08,12,10,22,27.30
2021,08,12,10,23,27.30
2021,08,12,10,24,27.30
2021,08,12,10,25,27.30
2021,08,12,10,26,27.40
2021,08,12,10,27,27.40
2021,08,12,10,28,27.40
2021,08,12,10,29,27.30
2021,08,12,10,30,27.30
2021,08,12,10,31,27.30
2021,08,12,10,32,27.30
2021,08,12,10,33,27.30
2021,08,12,10,34,27.30
2021,08,12,10,35,27.40
2021,08,12,10,36,27.40
2021,08,12,10,37,27.40
2021,08,12,10,38,27.50
2021,08,12,10,39,27.60
2021,08,12,10,40,27.70
2021,08,12,10,41,27.80
2021,08,12,10,42,27.80
2021,08,12,10,43,27.80
2021,08,12,10,44,27.80
2021,08,12,10,45,27.80
2021,08,12,10,46,27.90
2021,08,12,10,47,27.90
2021,08,12,10,48,27.90
2021,08,12,10,49,27.80
2021,08,12,10,50,27.60
2021,08,12,10,51,27.40
2021,08,12,10,52,27.20
2021,08,12,10,53,27.10
2021,08,12,10,54,26.90
2021,08,12,10,55,26.80
2021,08,12,10,56,26.70
2021,08,12,10,57,26.70
2021,08,12,10,58,26.70
2021,08,12,10,59,26.80
2021,08,12,11,00,26.80
2021,08,12,11,01,26.90
2021,08,12,11,02,27.00
2021,08,12,11,03,27.00
2021,08,12,11,04,27.10
2021,08,12,11,05,27.20
2021,08,12,11,06,27.30
2021,08,12,11,07,27.40
2021,08,12,11,08,27.50
2021,08,12,11,09,27.60
2021,08,12,11,10,27.70
2021,08,12,11,11,27.70
2021,08,12,11,12,27.70
2021,08,12,11,13,27.70
2021,08,12,11,14,27.60
2021,08,12,11,15,27.50
2021,08,12,11,16,27.40
2021,08,12,11,17,27.30
2021,08,12,11,18,27.30
2021,08,12,11,19,27.30
2021,08,12,11,20,27.30
2021,08,12,11,21,27.30
2021,08,12,11,22,27.40
2021,08,12,11,23,27.50
2021,08,12,11,24,27.60
2021,08,12,11,25,27.70
2021,08,12,11,26,27.80
2021,08,12,11,27,27.90
2021,08,12,11,28,28.00
2021,08,12,11,29,28.20
2021,08,12,11,30,28.40
2021,08,12,11,31,28.50
2021,08,12,11,32,28.70
2021,08,12,11,33,28.80
2021,08,12,11,34,28.90
2021,08,12,11,35,29.00
2021,08,12,11,36,29.10
2021,08,12,11,37,29.20
2021,08,12,11,38,29.30
2021,08,12,11,39,29.30
2021,08,12,11,40,29.40
2021,08,12,11,41,29.40
2021,08,12,11,42,29.30
2021,08,12,11,43,29.30
2021,08,12,11,44,29.30
2021,08,12,11,45,29.30
2021,08,12,11,46,29.30
2021,08,12,11,47,29.20
2021,08,12,11,48,29.20
2021,08,12,11,49,29.20
2021,08,12,11,50,29.20
2021,08,12,11,51,29.20
2021,08,12,11,52,29.30
2021,08,12,11,53,29.40
2021,08,12,11,54,29.50
2021,08,12,11,55,29.60
2021,08,12,11,56,29.70
2021,08,12,11,57,29.80
2021,08,12,11,58,29.80
2021,08,12,11,59,29.80
2021,08,12,12,00,29.90
2021,08,12,12,01,30.00
2021,08,12,12,02,30.20
2021,08,12,12,03,30.30
2021,08,12,12,04,30.30
2021,08,12,12,05,30.20
2021,08,12,12,06,30.10
2021,08,12,12,07,30.00
2021,08,12,12,08,30.00
2021,08,12,12,09,30.10
2021,08,12,12,10,30.00
2021,08,12,12,11,30.00
2021,08,12,12,12,29.90
2021,08,12,12,13,29.90
2021,08,12,12,14,30.00
2021,08,12,12,15,30.00
2021,08,12,12,16,30.00
2021,08,12,12,17,30.00
2021,08,12,12,18,30.10
2021,08,12,12,19,30.20
2021,08,12,12,20,30.20
2021,08,12,12,21,30.30
2021,08,12,12,22,30.40
2021,08,12,12,23,30.50
2021,08,12,12,24,30.60
2021,08,12,12,25,30.70
2021,08,12,12,26,30.90
2021,08,12,12,27,31.00
2021,08,12,12,28,31.20
2021,08,12,12,29,31.30
2021,08,12,12,30,31.30
2021,08,12,12,31,31.30
2021,08,12,12,32,31.40
2021,08,12,12,33,31.50
2021,08,12,12,34,31.60
2021,08,12,12,35,31.70
2021,08,12,12,36,31.80
2021,08,12,12,37,31.80
2021,08,12,12,38,31.90
2021,08,12,12,39,31.90
2021,08,12,12,40,31.90
2021,08,12,12,41,32.00
2021,08,12,12,42,32.00
2021,08,12,12,43,32.00
2021,08,12,12,44,32.00
2021,08,12,12,45,31.90
2021,08,12,12,46,31.80
2021,08,12,12,47,31.80
2021,08,12,12,48,31.90
2021,08,12,12,49,31.90
2021,08,12,12,50,32.00
2021,08,12,12,51,32.00
2021,08,12,12,52,32.00
2021,08,12,12,53,31.90
2021,08,12,12,54,31.80
2021,08,12,12,55,31.70
2021,08,12,12,56,31.60
2021,08,12,12,57,31.50
2021,08,12,12,58,31.40
2021,08,12,12,59,31.50
2021,08,12,13,00,31.60
2021,08,12,13,01,31.70
2021,08,12,13,02,31.80
2021,08,12,13,03,31.90
2021,08,12,13,04,32.10
2021,08,12,13,05,32.20
2021,08,12,13,06,32.40
2021,08,12,13,07,32.50
2021,08,12,13,08,32.70
2021,08,12,13,09,32.80
2021,08,12,13,10,32.80
2021,08,12,13,11,32.80
2021,08,12,13,12,32.80
2021,08,12,13,13,32.90
2021,08,12,13,14,32.90
2021,08,12,13,15,33.00
2021,08,12,13,16,33.10
2021,08,12,13,17,33.20
2021,08,12,13,18,33.20
2021,08,12,13,19,33.30
2021,08,12,13,20,33.30
2021,08,12,13,21,33.40
2021,08,12,13,22,33.50
2021,08,12,13,23,33.50
2021,08,12,13,24,33.70
2021,08,12,13,25,33.70
2021,08,12,13,26,33.80
2021,08,12,13,27,34.00
2021,08,12,13,28,34.00
2021,08,12,13,29,34.00
2021,08,12,13,30,34.00
2021,08,12,13,31,34.00
2021,08,12,13,32,34.00
2021,08,12,13,33,34.00
2021,08,12,13,34,34.00
2021,08,12,13,35,33.90
2021,08,12,13,36,33.80
2021,08,12,13,37,33.70
2021,08,12,13,38,33.60
2021,08,12,13,39,33.50
2021,08,12,13,40,33.40
2021,08,12,13,41,33.40
2021,08,12,13,42,33.40
2021,08,12,13,43,33.40
2021,08,12,13,44,33.50
2021,08,12,13,45,33.50
2021,08,12,13,46,33.60
2021,08,12,13,47,33.50
2021,08,12,13,48,33.50
2021,08,12,13,49,33.50
2021,08,12,13,50,33.60
2021,08,12,13,51,33.60
2021,08,12,13,52,33.60
2021,08,12,13,53,33.60
2021,08,12,13,54,33.50
2021,08,12,13,55,33.40
2021,08,12,13,56,33.30
2021,08,12,13,57,33.30
2021,08,12,13,58,33.40
2021,08,12,13,59,33.50
2021,08,12,14,00,33.50
2021,08,12,14,01,33.60
2021,08,12,14,02,33.60
2021,08,12,14,03,33.60
2021,08,12,14,04,33.60
2021,08,12,14,05,33.60
2021,08,12,14,06,33.50
2021,08,12,14,07,33.40
2021,08,12,14,08,33.40
2021,08,12,14,09,33.40
2021,08,12,14,10,33.60
2021,08,12,14,11,33.70
2021,08,12,14,12,33.70
2021,08,12,14,13,33.80
2021,08,12,14,14,33.90
2021,08,12,14,15,34.00
2021,08,12,14,16,34.00
2021,08,12,14,17,34.10
2021,08,12,14,18,34.10
2021,08,12,14,19,34.20
2021,08,12,14,20,34.30
2021,08,12,14,21,34.40
2021,08,12,14,22,34.40
2021,08,12,14,23,34.40
2021,08,12,14,24,34.50
2021,08,12,14,25,34.60
2021,08,12,14,26,34.60
2021,08,12,14,27,34.50
2021,08,12,14,28,34.50
2021,08,12,14,29,34.50
2021,08,12,14,30,34.60
2021,08,12,14,31,34.70
2021,08,12,14,32,34.70
2021,08,12,14,33,34.70
2021,08,12,14,34,34.70
2021,08,12,14,35,34.70
2021,08,12,14,36,34.70
2021,08,12,14,37,34.70
2021,08,12,14,38,34.70
2021,08,12,14,39,34.70
2021,08,12,14,40,34.80
2021,08,12,14,41,34.90
2021,08,12,14,42,34.80
2021,08,12,14,43,34.70
2021,08,12,14,44,34.70
2021,08,12,14,45,34.70
2021,08,12,14,46,34.70
2021,08,12,14,47,34.70
2021,08,12,14,48,34.80
2021,08,12,14,49,34.80
2021,08,12,14,50,34.90
2021,08,12,14,51,35.10
2021,08,12,14,52,35.10
2021,08,12,14,53,35.20
2021,08,12,14,54,35.30
2021,08,12,14,55,35.30
2021,08,12,14,56,35.20
2021,08,12,14,57,35.10
2021,08,12,14,58,35.10
2021,08,12,14,59,35.00
2021,08,12,15,00,35.00
2021,08,12,15,01,35.10
2021,08,12,15,02,35.10
2021,08,12,15,03,35.00
2021,08,12,15,04,35.00
2021,08,12,15,05,35.00
2021,08,12,15,06,35.10
2021,08,12,15,07,35.10
2021,08,12,15,08,35.20
2021,08,12,15,09,35.30
2021,08,12,15,10,35.20
2021,08,12,15,11,35.20
2021,08,12,15,12,35.20
2021,08,12,15,13,35.10
2021,08,12,15,14,35.10
2021,08,12,15,15,35.00
2021,08,12,15,16,35.10
2021,08,12,15,17,35.10
2021,08,12,15,18,35.10
2021,08,12,15,19,35.10
2021,08,12,15,20,35.10
2021,08,12,15,21,35.00
2021,08,12,15,22,35.00
2021,08,12,15,23,35.10
2021,08,12,15,24,35.10
2021,08,12,15,25,35.20
2021,08,12,15,26,35.40
2021,08,12,15,27,35.50
2021,08,12,15,28,35.60
2021,08,12,15,29,35.50
2021,08,12,15,30,35.40
2021,08,12,15,31,35.30
2021,08,12,15,32,35.30
2021,08,12,15,33,35.30
2021,08,12,15,34,35.50
2021,08,12,15,35,35.50
2021,08,12,15,36,35.60
2021,08,12,15,37,35.60
2021,08,12,15,38,35.50
2021,08,12,15,39,35.40
2021,08,12,15,40,35.40
2021,08,12,15,41,35.30
2021,08,12,15,42,35.30
2021,08,12,15,43,35.30
2021,08,12,15,44,35.30
2021,08,12,15,45,35.30
2021,08,12,15,46,35.30
2021,08,12,15,47,35.30
2021,08,12,15,48,35.40
2021,08,12,15,49,35.50
2021,08,12,15,50,35.60
2021,08,12,15,51,35.70
2021,08,12,15,52,35.80
2021,08,12,15,53,35.80
2021,08,12,15,54,35.90
2021,08,12,15,55,35.80
2021,08,12,15,56,35.90
2021,08,12,15,57,35.90
2021,08,12,15,58,35.90
2021,08,12,15,59,35.90
2021,08,12,16,00,35.90
2021,08,12,16,01,35.90
2021,08,12,16,02,35.90
2021,08,12,16,03,35.90
2021,08,12,16,04,35.90
2021,08,12,16,05,35.90
2021,08,12,16,06,35.90
2021,08,12,16,07,35.90
2021,08,12,16,08,35.90
2021,08,12,16,09,36.00
2021,08,12,16,10,36.00
2021,08,12,16,11,36.00
2021,08,12,16,12,36.00
2021,08,12,16,13,35.90
2021,08,12,16,14,35.90
2021,08,12,16,15,35.90
2021,08,12,16,16,35.90
2021,08,12,16,17,35.90
2021,08,12,16,18,36.00
2021,08,12,16,19,36.00
2021,08,12,16,20,35.90
2021,08,12,16,21,35.90
2021,08,12,16,22,35.90
2021,08,12,16,23,35.90
2021,08,12,16,24,35.90
2021,08,12,16,25,35.90
2021,08,12,16,26,35.90
2021,08,12,16,27,35.80
2021,08,12,16,28,35.70
2021,08,12,16,29,35.70
2021,08,12,16,30,35.70
2021,08,12,16,31,35.70
2021,08,12,16,32,35.70
2021,08,12,16,33,35.70
2021,08,12,16,34,35.80
2021,08,12,16,35,35.90
2021,08,12,16,36,35.90
2021,08,12,16,37,35.90
2021,08,12,16,38,35.90
2021,08,12,16,39,36.00
2021,08,12,16,40,36.10
2021,08,12,16,41,36.20
2021,08,12,16,42,36.30
2021,08,12,16,43,36.30
2021,08,12,16,44,36.30
2021,08,12,16,45,36.30
2021,08,12,16,46,36.30
2021,08,12,16,47,36.30
2021,08,12,16,48,36.20
2021,08,12,16,49,36.10
2021,08,12,16,50,36.00
2021,08,12,16,51,35.90
2021,08,12,16,52,35.90
2021,08,12,16,53,36.00
2021,08,12,16,54,36.10
2021,08,12,16,55,36.10
2021,08,12,16,56,36.20
2021,08,12,16,57,36.20
2021,08,12,16,58,36.10
2021,08,12,16,59,36.10
2021,08,12,17,00,36.10
2021,08,12,17,01,36.10
2021,08,12,17,02,36.10
2021,08,12,17,03,36.10
2021,08,12,17,04,36.10
2021,08,12,17,05,36.10
2021,08,12,17,06,36.20
2021,08,12,17,07,36.20
2021,08,12,17,08,36.30
2021,08,12,17,09,36.30
2021,08,12,17,10,36.40
2021,08,12,17,11,36.40
2021,08,12,17,12,36.40
2021,08,12,17,13,36.40
2021,08,12,17,14,36.40
2021,08,12,17,15,36.30
2021,08,12,17,16,36.20
2021,08,12,17,17,36.10
2021,08,12,17,18,36.00
2021,08,12,17,19,35.80